« Back
NWS Peachtree City, Ga » Text Product » GA Regional Weather Roundup


Printer-friendly Version
Current Version              Previous Versions:   1  2  3  4  5  6  7  8  9  

Regional Weather Roundup

269
ASUS42 KFFC 250003
RWRGA
WEATHER ROUNDUP FOR GEORGIA
NATIONAL WEATHER SERVICE PEACHTREE CITY GA
800 PM EDT FRI APR 24 2015

NOTE: "FAIR" INDICATES FEW OR NO CLOUDS BELOW 12,000 FEET WITH NO
SIGNIFICANT WEATHER AND/OR OBSTRUCTIONS TO VISIBILITY.

* = USE WITH CAUTION. THE STATIONS MARKED WITH AN ASTERISK MAY NOT
REPORT WEATHER SUCH AS PRECIPITATION, FOG, OR THUNDER AND ARE NOT
QUALITY CONTROLLED BY NWS.

THE REMARK "TC" DENOTES TEMPERATURE READING IN DEGREES CELSIUS.

GAZ001>058-250100-
NORTH GEORGIA

CITY           SKY/WX    TMP DP  RH WIND       PRES   REMARKS
ATLANTA        CLOUDY    73  41  31 S3        29.96F
6HR MIN TEMP:  70; 6HR MAX TEMP:  76;

ATHENS         CLOUDY    68  42  38 S3        29.97F
6HR MIN TEMP:  68; 6HR MAX TEMP:  75;

CHAMBLEE       CLOUDY    71  40  32 SW7       29.96F
6HR MIN TEMP:  70; 6HR MAX TEMP:  76;

PEACHTREE CITY CLOUDY    68  56  65 CALM      29.97S
6HR MIN TEMP:  68; 6HR MAX TEMP:  78;

ROME           CLOUDY    67  47  48 CALM      29.95S
6HR MIN TEMP:  67; 6HR MAX TEMP:  73;

WEST ATLANTA   CLOUDY    73  41  31 S3        29.95F
6HR MIN TEMP:  71; 6HR MAX TEMP:  77;

GAINESVILLE    CLOUDY    69  39  33 CALM      29.98F
6HR MIN TEMP:  68; 6HR MAX TEMP:  73;

CARTERSVILLE   CLOUDY    62  50  64 CALM      29.96F
6HR MIN TEMP:  62; 6HR MAX TEMP:  75;



CITY           SKY/WX    TMP DP  RH WIND       PRES   REMARKS
DALTON*        CLOUDY    63  50  63 CALM      29.96F
LAWRENCEVILLE* CLEAR     72  37  28 CALM      29.96F
KENNESAW*      CLOUDY    70  36  28 NW6       29.97F
BLAIRSVILLE*     N/A     67  50  54 NW5       29.98S
$$

GAZ059>098-102>109-250100-
CENTRAL GEORGIA

CITY           SKY/WX    TMP DP  RH WIND       PRES   REMARKS
AUGUSTA-BUSH   CLOUDY    67  45  45 S3        29.98F
6HR MIN TEMP:  66; 6HR MAX TEMP:  74;

AUGUSTA-DANIEL CLOUDY    72  37  28 S6        29.99F
6HR MIN TEMP:  70; 6HR MAX TEMP:  76;

COLUMBUS       CLOUDY    75  49  39 CALM      29.94F
6HR MIN TEMP:  74; 6HR MAX TEMP:  80;

MACON          CLOUDY    70  53  54 CALM      29.96F
6HR MIN TEMP:  68; 6HR MAX TEMP:  78;

ROBINS AFB     CLOUDY    70  53  53 SE3       29.96F


CITY           SKY/WX    TMP DP  RH WIND       PRES   REMARKS
LAGRANGE*      CLOUDY    70  63  78 CALM      29.95F
SYLVANIA*      MOCLDY    68  49  50 CALM      30.01S
MILLEDGEVILLE* CLOUDY    68  54  60 CALM      29.96F
$$

GAZ099>101-110>166-250100-
SOUTH GEORGIA

CITY           SKY/WX    TMP DP  RH WIND       PRES   REMARKS
SAVANNAH       MOCLDY    64  43  46 S7        30.03S
6HR MIN TEMP:  64; 6HR MAX TEMP:  75;

VALDOSTA       CLOUDY    75  61  61 CALM      29.96S
6HR MIN TEMP:  75; 6HR MAX TEMP:  84;

ALMA           MOCLDY    71  51  49 E6        29.98F
6HR MIN TEMP:  71; 6HR MAX TEMP:  80;

ST SIMONS      PTCLDY    65  49  56 E6        30.03F
6HR MIN TEMP:  65; 6HR MAX TEMP:  70;

FT STEWART     MOCLDY    65  48  54 SE6       30.00S
ALBANY         CLOUDY    75  58  55 CALM      29.96F
HUNTER AFB     MOCLDY    64  46  52 SE5       30.01S
MOODY AFB      CLOUDY    76  61  60 SE2       29.94F
BRUNSWICK      PTCLDY    66  50  55 E5        30.03S


CITY           SKY/WX    TMP DP  RH WIND       PRES   REMARKS
BAINBRIDGE*    CLOUDY    81  61  50 E6        29.92F
MOULTRIE*      CLOUDY    77  61  57 CALM      29.95F
VIDALIA*       MOCLDY    72  55  56 CALM      29.99F
WAYCROSS*      MOCLDY    73  56  53 SE8       29.98F
DOUGLAS*       CLOUDY    77  52  41 E3        29.97F
$$



USA.gov is the U.S. government's official web portal to all federal, state and local government web resources and services.